CAPE
0 0 0 0 0 0 33 556 1413 1973 1256 1101 809 838 1149 967 923 770 891 616 724 1017 636 771 580 441 432 348 396 406 543 802
0 0 0 0 0 264 327 44 682 2013 1727 1514 1308 1151 1133 952 675 985 864 876 881 1057 724 729 793 634 582 676 515 654 806 1136
0 0 57 104 19 182 448 497 193 132 1381 1931 1801 1466 1166 901 714 831 576 841 899 982 679 366 305 117 121 201 895 971 1374 1825
1 41 99 240 287 304 331 632 672 86 134 1602 1999 1662 1492 1145 1217 839 681 592 763 844 476 644 173 96 151 347 932 989 863 1965
0 0 3 51 326 385 451 596 892 594 116 557 2185 1818 1331 1577 1351 1224 1076 898 924 674 923 789 510 400 374 805 846 1125 1220 1350
0 0 0 0 17 321 362 372 859 1208 558 291 2122 2370 2013 1456 1583 1629 1881 1334 768 823 1042 939 692 710 797 838 1147 1371 1470 1041
0 0 0 0 0 175 318 171 491 1356 1654 1381 1685 2290 2240 1716 1795 2202 1759 1264 1241 1445 1430 1194 1032 1346 1398 1512 1615 1214 782 794
0 0 0 0 0 0 289 4 87 292 1949 1957 943 1964 2081 1992 1945 2310 2247 1630 557 608 602 491 260 499 626 384 21 1 3 3
0 0 0 0 0 0 255 4 9 7 68 288 693 1764 1823 738 141 10 1 2 3 5 0 0 2 1 8 6 4 11 6 5
0 0 0 0 0 0 127 3 6 8 9 6 3 3 3 5 4 5 4 4 4 1 1 0 4 2 2 23 19 7 5 3
0 0 0 0 0 0 50 6 5 11 7 8 6 6 6 6 9 9 16 11 17 9 10 12 9 3 0 0 0 0 0 0
0 0 0 0 0 0 2 48 3 7 9 12 8 8 5 7 5 8 12 8 13 6 1 1 0 0 0 0 0 0 0 0
0 0 0 0 0 0 0 96 6 5 5 22 16 6 4 3 1 1 5 4 2 3 1 0 0 0 0 0 0 0 0 0
0 0 0 0 0 0 1 19 1 4 6 3 6 4 0 0 3 4 3 2 3 1 3 3 1 0 1 1 0 0 0 1
0 0 0 0 0 0 9 14 7 1 4 5 5 6 9 5 5 4 4 4 6 3 2 2 5 2 1 0 1 1 4 9
0 0 0 0 0 0 6 14 6 1 2 4 14 10 10 12 9 7 6 2 3 2 0 2 3 4 1 5 7 6 3 3
0 0 0 0 0 2 2 18 6 3 4 6 7 6 6 8 10 13 13 12 9 6 9 6 2 2 0 0 0 6 5 4
0 0 0 0 1 12 22 5 6 7 9 10 11 10 8 9 8 8 5 6 6 10 7 7 8 4 1 0 0 4 6 8
0 0 0 0 5 14 6 4 4 7 7 8 5 5 7 4 5 5 6 10 7 12 9 5 1 1 0 0 0 1 2 4
CIN
0 0 0 0 0 0 -228 -140 -145 -196 -265 -315 -301 -315 -299 -308 -303 -312 -325 -349 -319 -228 -234 -165 -154 -124 -115 -125 -115 -69 -56 -23
0 0 0 0 -1 -238 -257 -343 -183 -142 -207 -252 -296 -330 -344 -347 -380 -344 -329 -324 -315 -250 -282 -213 -187 -141 -118 -60 -92 -99 -33 -18
0 0 -260 -272 -368 -289 -257 -288 -380 -373 -170 -195 -234 -305 -328 -365 -356 -368 -414 -325 -331 -315 -333 -350 -353 -356 -302 -235 -88 -89 -24 -1
-35 -199 -240 -209 -215 -287 -337 -303 -318 -497 -453 -164 -178 -247 -258 -329 -339 -343 -378 -397 -367 -341 -341 -290 -418 -362 -330 -292 -164 -90 -96 -6
0 0 -57 -323 -222 -234 -282 -311 -291 -335 -491 -329 -160 -215 -298 -270 -218 -209 -221 -278 -314 -374 -226 -236 -291 -288 -284 -192 -194 -62 -63 -47
0 0 0 0 -122 -208 -241 -318 -232 -204 -406 -504 -163 -159 -206 -223 -145 -121 -103 -192 -298 -268 -174 -184 -195 -168 -158 -162 -105 -59 -40 -75
0 0 0 0 0 -201 -214 -407 -291 -144 -141 -257 -224 -129 -153 -169 -127 -82 -101 -160 -136 -106 -83 -73 -40 -22 -32 -45 -32 -57 -71 -63
0 0 0 0 0 0 -175 -51 -469 -359 -61 -80 -290 -131 -120 -116 -91 -46 -36 -72 -174 -532 -320 -2 -12 -190 -77 -83 -130 -19 0 0
0 0 0 0 0 0 -130 0 0 -74 -515 -420 -317 -83 -81 -374 -26 -97 0 0 0 0 0 0 0 0 0 0 0 0 0 0
0 0 0 0 0 0 -145 0 0 0 0 0 0 0 0 0 0 0 0 0 0 0 0 0 0 0 0 0 0 0 0 0
0 0 0 0 0 0 -139 -92 0 0 0 0 0 0 0 0 0 0 0 0 0 0 0 0 0 0 0 0 0 0 0 0
0 0 0 0 0 0 -75 -105 0 0 0 0 0 0 0 0 0 0 0 0 0 0 0 0 0 0 0 0 0 0 0 0
0 0 0 0 0 0 0 -103 0 0 0 0 0 0 0 0 0 0 0 0 0 0 0 0 0 0 0 0 0 0 0 0
0 0 0 0 0 0 0 -34 0 0 0 0 0 0 0 0 0 0 0 0 0 0 0 0 0 0 0 0 0 0 0 0
0 0 0 0 0 0 0 0 -2 0 0 0 0 0 0 0 0 0 0 0 0 0 0 0 0 0 0 0 0 0 0 0
0 0 0 0 0 0 0 -1 0 0 0 0 0 0 0 0 0 0 0 0 0 0 0 0 0 0 0 0 0 0 0 0
0 0 0 0 0 0 0 0 0 0 0 0 0 0 0 0 0 0 0 0 0 0 0 0 0 0 0 0 -2 0 0 0
0 0 0 0 0 0 0 0 0 0 0 0 0 0 0 0 0 0 0 0 0 0 0 0 0 0 0 0 0 0 0 0
-5 0 0 0 0 0 0 0 0 0 0 0 0 0 0 0 0 0 0 0 0 0 0 0 0 0 0 0 0 0 0 0
Wind_Speed
15 16 16 15 13 12 12 12 16 17 15 14 14 14 15 14 15 15 18 16 19 15 13 12 12 11 10 10 11 10 10 10
15 16 17 18 16 13 13 14 14 12 14 14 14 16 14 13 15 18 18 16 18 17 13 13 10 10 10 9 10 10 10 9
17 17 18 18 17 17 17 16 14 14 14 13 13 13 14 14 14 16 19 18 18 17 16 12 16 13 12 13 11 7 7 7
19 21 20 19 19 19 20 21 19 14 16 13 13 12 12 13 14 14 16 20 19 18 17 13 13 12 12 13 12 17 10 9
18 21 23 22 21 20 20 21 21 16 15 14 17 14 15 12 13 12 13 17 17 18 19 18 17 12 13 13 13 13 9 9
21 22 22 22 21 19 18 22 22 19 16 17 13 17 13 12 11 14 12 10 17 22 19 19 17 13 15 12 12 14 10 6
19 20 21 21 23 21 20 22 23 22 17 16 16 16 14 13 12 6 7 10 12 16 17 16 14 12 13 12 11 10 10 9
19 22 23 24 25 25 21 20 21 21 21 14 12 15 14 16 14 8 10 5 1 0 2 5 5 5 2 2 9 7 3 6
19 20 21 23 24 25 22 19 19 17 18 15 14 10 4 4 12 10 8 8 7 9 14 14 18 16 13 7 11 3 10 6
19 20 20 22 22 24 20 17 16 16 13 11 12 13 13 11 14 11 9 8 7 9 11 13 17 13 15 14 9 8 5 6
20 19 20 19 20 21 19 13 13 14 12 10 9 10 11 12 12 13 11 11 10 11 13 14 12 14 12 9 6 6 7 6
19 19 20 20 20 20 19 13 10 11 11 9 10 12 12 11 13 12 11 13 12 13 13 13 15 14 10 11 10 8 9 7
18 18 18 19 20 19 20 12 8 7 8 9 9 9 10 13 13 15 12 13 15 14 14 15 15 14 13 11 11 10 8 9
17 17 17 18 19 19 18 14 7 7 7 6 11 9 11 13 12 18 15 14 14 15 14 13 14 14 11 12 10 9 9 11
15 16 18 18 20 19 19 17 4 4 6 8 9 13 12 12 14 13 15 16 12 14 14 15 16 13 11 11 10 9 11 12
14 16 17 19 21 20 20 14 3 5 7 10 11 10 12 12 11 14 14 16 14 16 16 15 15 14 11 13 12 10 9 10
15 17 18 19 21 20 19 7 6 7 9 10 10 12 11 13 10 13 15 14 16 15 14 16 16 13 20 19 11 9 8 10
16 16 17 17 19 19 14 10 8 8 10 10 11 12 13 13 13 13 14 16 15 14 14 15 16 17 23 19 15 7 9 7
15 13 15 16 16 14 9 9 10 11 12 13 13 13 13 12 14 15 13 12 13 12 12 13 15 15 22 19 11 8 9 9
Wind_Direction
2 357 351 349 346 329 294 258 244 231 230 228 231 223 225 220 219 216 211 210 210 208 218 214 214 223 223 221 225 238 243 255
1 357 351 347 346 336 335 311 282 241 232 231 225 224 221 222 223 222 219 212 205 204 203 206 199 221 224 232 232 226 245 235
358 2 358 351 344 341 332 324 307 279 241 237 235 231 232 228 223 220 217 212 209 203 202 203 191 190 200 206 209 216 230 231
0 1 1 356 353 344 335 329 322 299 278 246 237 237 240 231 223 219 215 211 207 210 213 202 193 203 212 192 190 203 205 214
0 359 357 357 354 345 339 331 322 311 295 257 236 233 234 239 240 227 222 209 206 205 218 214 206 207 205 195 183 207 196 214
2 358 353 355 350 348 343 336 326 321 306 283 234 232 239 245 242 238 215 188 201 213 213 214 212 210 218 197 186 195 203 197
360 358 355 355 355 348 348 342 331 331 319 292 254 238 231 245 239 220 198 189 210 220 216 216 214 219 230 211 200 183 201 189
356 356 357 357 353 347 348 342 332 338 325 314 271 245 235 245 245 213 200 192 126 187 229 45 27 359 283 151 104 92 79 84
356 353 352 350 351 348 344 344 337 340 346 1 9 337 283 357 37 69 83 92 93 98 95 81 67 51 8 70 58 72 69 77
351 348 351 345 345 350 348 341 340 346 345 4 28 46 58 63 62 67 75 83 80 78 89 96 97 94 50 351 31 60 83 85
345 346 348 342 344 342 345 351 348 341 352 16 32 55 67 69 73 65 63 64 57 66 79 74 82 84 108 99 57 62 75 72
344 342 342 341 341 339 339 354 352 353 357 24 41 58 51 64 70 66 69 71 67 67 76 79 77 80 83 97 98 85 83 84
338 338 340 340 340 340 336 348 345 13 5 21 38 67 65 64 78 76 67 73 81 74 77 76 77 73 79 81 84 85 84 82
330 339 343 342 340 336 335 334 338 360 32 46 44 52 76 83 67 74 68 65 61 63 63 65 79 85 80 83 86 89 79 66
332 339 342 343 342 337 335 327 332 36 67 65 72 73 59 57 80 81 86 70 59 69 61 63 50 55 69 70 65 66 62 56
341 342 343 344 342 342 342 318 85 84 71 75 72 69 86 69 68 78 75 78 62 61 64 55 59 51 33 41 45 40 62 67
345 346 347 347 344 347 340 9 51 84 90 87 84 87 89 85 59 62 62 74 72 59 60 59 55 49 37 28 30 44 50 50
344 344 346 348 348 352 2 30 49 70 78 76 74 78 74 76 74 69 63 61 69 69 61 56 52 47 33 22 357 44 43 35
337 342 341 348 356 359 22 49 61 66 70 70 68 71 76 71 78 70 68 70 68 77 71 65 58 46 33 10 325 38 32 22